ECMWFFLT2_925_temp_000.txt.gz
Temp
12 12 11 11 10 10 10 10 10 10 10 10 10 9 9 9 9 9 8 8 8 8 7 7 7 7 7 6 6 6 6 6 6 6 6 6 5 5 5 4 4 4 4 3 3 3 3 3 2 3 3 3
12 11 11 11 11 10 10 10 10 10 10 10 9 9 9 9 8 8 8 8 8 8 7 7 7 6 6 6 6 6 6 6 6 6 5 5 5 5 4 4 4 4 4 3 3 2 2 3 3 3 3 3
12 12 11 11 11 11 10 10 10 10 10 9 9 9 9 8 8 8 8 7 7 7 7 6 6 6 6 6 6 6 6 6 6 5 5 5 5 4 4 4 5 4 4 3 3 2 2 2 2 2 2 3
12 12 11 11 12 12 11 10 10 10 9 9 9 9 9 8 8 8 8 7 7 7 7 6 6 6 6 6 6 6 6 6 5 5 5 5 4 4 4 5 5 4 4 4 3 3 3 3 2 2 2 2
12 12 12 12 12 12 12 11 10 10 9 9 9 9 9 8 8 8 8 7 7 7 6 6 6 6 6 6 6 6 6 5 5 5 5 4 4 4 5 5 5 4 4 4 3 3 3 3 2 2 2 2
12 12 12 12 12 12 12 12 11 10 9 9 9 9 8 8 8 8 7 7 7 7 6 6 6 6 6 5 6 5 5 5 5 5 4 4 3 4 5 5 4 4 4 4 3 3 3 2 2 2 1 1
12 12 12 12 12 12 12 12 12 11 10 9 9 8 8 8 8 7 7 7 7 7 6 6 6 6 6 5 5 5 5 5 5 4 4 3 3 4 5 4 4 4 4 3 3 2 2 2 1 1 0 0
13 12 12 12 12 12 12 12 12 11 10 9 9 8 8 8 7 7 7 7 7 6 6 6 6 6 6 5 5 4 4 5 5 4 4 4 4 5 5 4 4 4 4 3 3 2 2 1 1 0 -0 -0
13 13 12 12 12 12 12 12 12 12 11 10 9 8 8 7 7 7 7 7 7 6 6 6 6 6 6 5 4 4 5 5 5 5 5 5 5 5 5 4 4 4 4 3 3 2 2 1 1 -0 -1 -1
13 13 12 12 12 12 12 12 12 12 11 11 10 9 8 7 7 7 7 7 6 6 6 6 6 5 6 5 5 5 5 5 5 5 5 5 5 5 5 4 4 4 4 4 3 2 2 1 1 -0 -1 -1
13 13 13 12 12 12 12 12 11 11 11 11 10 10 9 8 7 7 7 6 6 6 6 6 6 5 5 5 5 5 5 5 4 4 4 4 4 4 4 4 5 4 4 4 3 2 2 1 1 0 -1 -1
12 12 12 12 12 12 12 11 12 12 11 11 11 10 9 8 7 7 7 6 6 6 6 6 6 5 5 5 5 5 5 5 4 4 4 4 4 4 4 4 4 4 4 4 3 2 2 1 1 -0 -0 -1
13 12 12 12 12 12 12 11 12 12 11 11 11 10 10 9 8 7 7 7 7 6 6 6 5 5 5 5 5 5 4 4 4 4 4 4 4 4 4 4 4 4 4 3 3 3 2 1 1 0 -0 -1
13 12 12 12 12 12 12 12 12 11 11 11 11 11 10 10 9 8 8 7 7 6 6 6 5 5 5 5 5 5 4 4 4 4 4 4 4 4 4 3 3 3 3 3 2 2 2 2 1 0 -0 -1
12 12 12 12 12 12 12 12 11 11 11 11 11 11 10 10 9 9 8 7 7 6 6 6 5 5 5 5 5 4 4 4 3 3 3 3 3 3 2 2 2 2 2 2 2 2 2 1 1 0 -0 -1
12 12 12 12 11 12 12 11 11 11 11 11 11 11 10 10 10 9 8 7 7 6 6 5 5 5 5 5 4 4 4 3 3 3 2 2 1 1 1 1 1 1 1 1 1 1 1 1 0 -0 -1 -1
11 11 11 11 11 12 12 11 10 11 11 11 11 11 10 10 10 9 8 7 7 6 6 5 5 5 5 5 4 4 4 3 2 2 2 1 1 1 0 0 -0 -0 0 1 1 0 0 -0 -0 -0 -1 -1
11 11 11 11 11 11 10 10 10 10 11 11 10 10 10 10 10 9 8 8 7 6 6 5 5 5 5 5 4 4 3 3 2 2 1 1 1 0 -0 -0 -0 -0 0 0 0 -0 -1 -1 -1 -1 -1 -1
11 11 11 10 10 10 10 10 9 9 10 9 9 9 9 10 10 10 9 8 7 6 6 5 5 5 5 5 4 4 3 2 2 2 1 1 0 0 -0 -0 -1 -1 -0 -0 -0 -1 -1 -1 -1 -1 -1 -1
11 10 10 10 9 9 9 9 9 9 9 8 8 8 8 9 9 9 9 8 7 6 6 5 5 5 5 5 4 4 3 2 2 1 1 1 0 -0 -0 -1 -1 -1 -0 -0 -0 -1 -2 -2 -2 -2 -1 -2
10 10 9 9 9 9 9 9 9 9 8 8 8 8 8 8 8 8 8 8 8 7 6 6 5 5 5 4 4 3 3 2 2 1 1 1 0 -0 -1 -1 -1 -1 -1 -1 -1 -2 -2 -2 -3 -2 -2 -2
10 10 9 9 9 9 8 9 9 8 8 8 8 8 8 8 8 8 8 8 8 7 7 6 5 5 4 4 4 3 3 3 2 1 1 0 -0 -1 -1 -1 -2 -1 -1 -2 -2 -2 -2 -3 -3 -2 -2 -2
9 9 9 9 8 8 8 8 8 8 8 8 8 8 7 7 7 7 7 7 8 7 7 6 5 4 4 4 4 3 3 2 2 1 1 0 -0 -1 -1 -2 -2 -2 -2 -3 -3 -3 -3 -3 -3 -2 -2 -2
8 8 8 8 7 7 8 8 8 7 7 7 7 7 7 7 7 7 7 7 7 7 7 6 5 5 4 4 3 3 2 2 2 1 1 1 0 -1 -2 -2 -2 -3 -3 -4 -4 -3 -3 -3 -3 -3 -2 -2
7 7 7 7 7 8 8 8 7 7 7 7 7 7 6 6 7 6 6 7 7 7 7 6 5 4 4 3 3 3 3 3 2 2 1 1 -0 -1 -2 -2 -3 -3 -3 -4 -4 -3 -3 -3 -2 -3 -3 -3
6 6 6 6 6 7 7 7 7 7 7 7 7 6 6 6 6 6 6 6 6 7 7 6 5 5 4 4 3 3 2 2 2 1 1 0 -1 -2 -2 -2 -3 -3 -4 -5 -6 -6 -5 -4 -3 -4 -4 -4
5 5 5 5 6 6 6 6 6 6 6 6 6 6 6 5 6 6 6 6 6 6 6 6 6 5 4 4 3 2 2 2 1 1 1 0 -0 -2 -3 -3 -3 -4 -4 -5 -6 -6 -5 -5 -4 -3 -4 -5
4 4 4 5 5 5 5 5 5 5 6 5 5 5 5 5 6 6 6 6 6 6 6 6 6 5 4 3 3 2 1 1 1 1 1 0 -0 -1 -3 -4 -4 -4 -5 -5 -5 -5 -5 -6 -6 -2 -4 -7
4 4 4 4 5 5 5 5 5 5 6 5 5 5 5 6 6 5 5 5 5 5 6 6 5 4 4 3 3 2 1 1 2 2 1 1 0 -1 -2 -3 -4 -5 -5 -5 -4 -4 -4 -5 -4 -3 -5 -7
3 4 4 4 4 4 3 4 4 5 5 5 5 5 5 5 5 5 5 5 5 5 5 5 5 4 3 3 2 2 1 1 1 1 1 1 0 -0 -0 -2 -4 -5 -6 -6 -5 -5 -5 -4 -4 -5 -7 -6
3 3 3 3 3 3 3 2 3 5 5 4 4 5 5 5 5 5 5 5 5 5 5 4 4 3 3 2 2 2 1 1 1 1 2 2 1 0 -0 -2 -4 -5 -6 -7 -7 -6 -6 -6 -7 -7 -8 -6

ECMWFFLT2_925_temp_003.txt.gz
Temp
11 11 11 11 11 11 11 11 11 11 11 11 11 11 11 10 10 10 9 9 9 9 8 8 8 8 8 8 8 8 8 7 7 7 7 7 7 7 7 6 5 5 4 4 3 3 3 3 4 5 5 5
11 11 11 11 11 11 10 10 10 11 11 10 11 11 11 10 10 9 9 9 9 9 8 8 8 8 8 8 8 8 7 7 7 7 7 7 6 6 6 5 4 4 4 3 3 3 3 4 5 5 5 5
11 11 11 11 12 11 10 10 10 10 11 10 10 10 10 10 9 9 9 9 9 8 8 8 8 8 8 8 8 8 7 7 7 7 6 6 6 6 5 4 4 4 4 3 3 4 4 4 4 4 4 4
11 11 11 11 12 11 10 10 10 10 10 10 10 10 10 9 9 9 8 8 8 8 8 8 7 7 7 7 7 7 7 7 7 6 6 6 5 5 4 4 4 4 4 3 3 4 4 4 4 4 4 4
11 11 11 11 12 11 11 10 10 10 10 10 10 10 9 9 9 9 8 8 8 8 8 7 7 7 7 7 7 7 7 7 7 6 6 6 5 4 4 4 5 4 4 4 4 5 5 5 5 5 4 4
11 11 11 11 12 11 11 10 10 10 10 10 10 10 9 9 9 9 9 8 8 8 8 7 7 7 7 7 7 7 7 7 7 6 6 6 5 4 4 5 5 5 4 4 5 5 5 5 5 5 4 4
12 11 11 11 12 11 11 11 10 10 10 10 10 9 9 9 9 9 8 8 8 8 8 7 7 7 7 6 6 6 7 7 6 6 6 5 4 3 4 5 5 5 5 5 5 5 5 4 4 4 4 4
12 12 11 11 11 11 11 11 11 10 10 10 10 9 9 9 9 9 8 8 8 8 7 7 7 7 6 6 6 6 6 6 6 6 5 5 4 3 4 5 5 5 4 4 4 4 4 4 4 4 4 4
13 12 12 12 12 12 11 11 11 11 10 10 10 10 10 9 9 9 8 8 8 8 7 7 7 7 6 6 6 6 6 6 5 5 5 5 4 3 4 4 4 4 4 4 4 4 4 4 3 3 3 3
13 13 13 13 12 12 12 12 11 11 11 11 10 10 10 9 9 9 8 8 8 7 7 7 7 7 6 6 6 6 5 5 5 5 5 4 4 4 4 4 4 4 4 4 4 4 3 3 3 3 3 3
13 13 13 13 12 12 12 12 12 12 12 11 11 11 10 10 10 9 9 8 8 7 7 7 7 7 6 6 6 6 5 5 5 4 4 4 4 4 3 3 3 4 3 3 3 3 3 3 3 2 2 2
13 13 13 13 12 12 12 12 12 12 12 12 11 11 11 11 10 10 9 9 8 8 7 7 7 7 6 6 6 5 5 5 4 4 4 4 4 3 3 3 3 3 3 3 3 3 2 2 2 2 2 1
13 13 13 12 13 13 12 12 12 12 12 12 12 11 11 11 11 11 10 10 9 8 8 7 7 6 6 6 5 5 5 5 4 4 4 4 3 3 3 3 3 3 3 3 2 2 2 2 2 1 1 1
13 13 13 13 13 13 12 13 12 12 12 12 12 11 11 11 11 11 11 10 10 9 8 8 7 6 6 6 6 5 5 5 4 4 4 4 3 3 3 3 3 2 2 2 2 2 2 2 1 1 1 0
13 13 13 13 13 12 12 13 12 12 12 12 12 12 12 11 11 11 11 10 10 10 9 8 7 7 6 6 6 5 5 5 4 4 4 4 4 3 3 2 2 2 2 2 2 2 2 1 1 1 0 -0
11 12 12 12 11 12 12 12 11 11 11 11 12 12 11 11 11 11 11 10 10 10 9 9 8 7 7 7 6 6 5 5 4 4 4 3 3 3 2 2 2 2 2 2 2 2 2 1 1 1 0 -0
10 10 10 10 10 10 10 10 10 10 11 11 11 11 11 11 10 10 11 10 10 10 10 9 9 8 8 7 7 6 5 5 4 3 3 3 2 2 2 2 2 1 1 2 2 2 1 1 0 0 -0 -0
9 9 9 8 8 8 8 8 9 9 9 9 10 10 10 10 10 10 10 10 10 10 10 9 9 9 8 8 7 6 5 4 4 3 3 3 2 2 2 2 2 1 1 1 1 1 1 0 -0 -0 -0 -1
8 8 8 8 8 8 8 8 8 8 8 8 9 9 9 9 9 9 9 9 9 9 9 9 9 9 8 8 6 5 5 4 4 3 3 3 2 2 2 2 1 1 1 1 1 0 -0 -0 -1 -1 -1 -1
7 7 7 7 7 7 7 7 7 7 7 7 8 7 8 8 8 8 8 8 8 8 8 8 8 9 8 8 6 5 4 4 3 3 3 2 2 2 1 1 1 1 1 0 -0 -0 -1 -1 -1 -1 -1 -1
6 6 6 6 6 6 6 6 6 6 6 6 6 6 6 6 7 7 7 7 7 7 7 7 7 8 8 7 6 5 4 4 3 3 2 2 2 2 1 1 0 0 0 -0 -0 -1 -1 -1 -1 -1 -1 -1
5 5 5 6 6 6 6 6 6 6 6 6 5 5 5 5 5 6 6 6 6 6 6 6 6 6 6 7 6 5 4 3 3 3 2 2 2 1 1 1 0 0 -0 -1 -1 -1 -1 -1 -2 -1 -1 -1
4 4 4 5 5 5 5 5 5 5 5 5 5 5 5 5 5 5 5 5 5 5 5 5 5 5 5 5 5 4 4 3 2 2 2 2 1 1 1 0 0 0 -1 -1 -2 -1 -1 -1 -1 -1 -1 -2
3 3 3 3 4 4 4 5 5 5 5 5 5 5 5 5 5 5 5 5 5 5 5 4 4 4 4 4 4 4 3 3 3 2 2 2 1 1 -0 -1 -1 -1 -1 -2 -2 -2 -2 -1 -1 -1 -1 -1
3 2 2 2 3 3 3 4 4 4 5 5 5 5 4 4 4 4 4 5 5 5 5 5 4 4 3 4 3 4 4 4 3 3 3 2 1 0 -0 -1 -1 -2 -2 -3 -3 -2 -2 -2 -1 -1 -1 -1
3 3 2 2 3 3 3 4 4 4 4 4 4 4 4 4 4 4 4 4 4 4 4 4 4 4 3 4 3 3 3 3 3 2 2 2 0 -0 -0 -1 -1 -2 -2 -3 -2 -2 -1 -1 -1 -2 -2 -2
3 3 3 3 3 3 3 3 3 3 4 3 4 4 3 3 3 3 3 3 3 3 4 3 3 3 3 3 3 3 2 2 1 1 2 1 1 -0 -1 -2 -2 -2 -2 -2 -3 -3 -1 -0 -1 -1 -2 -4
2 3 3 4 4 4 3 3 3 3 3 3 3 3 3 3 3 3 3 3 3 3 3 3 3 3 3 3 3 3 2 2 1 1 1 1 1 0 -2 -3 -3 -2 -2 -2 -2 -2 -1 -2 -2 0 -0 -3
2 2 3 3 4 4 3 3 3 3 3 3 3 3 3 3 3 3 3 3 3 3 3 3 3 2 2 2 2 2 2 2 2 2 2 1 1 1 -0 -2 -3 -3 -3 -3 -2 -1 -1 -2 -1 0 -2 -3
1 1 2 2 2 2 2 2 2 2 2 3 3 3 3 3 3 3 3 3 3 3 2 2 2 2 2 2 2 2 2 2 2 1 1 1 1 0 0 0 -2 -4 -4 -4 -3 -2 -1 -1 0 -1 -3 -2
1 1 1 1 1 1 1 1 1 2 2 3 3 3 4 3 3 2 2 3 3 2 2 2 2 2 2 2 2 2 1 1 1 1 1 1 1 1 0 0 -2 -3 -4 -5 -5 -4 -2 -2 -2 -2 -2 -2

ECMWFFLT2_925_temp_006.txt.gz
Temp
12 12 12 12 12 12 12 12 12 12 12 13 12 12 12 12 11 11 11 10 10 10 10 9 9 9 10 10 10 10 10 10 9 9 9 9 9 9 9 9 8 7 6 6 5 4 3 5 6 6 6 6
12 12 12 12 12 12 12 12 12 12 12 12 13 12 12 12 11 11 10 10 10 10 10 10 9 9 9 9 9 10 9 9 9 9 9 9 9 9 9 8 8 7 6 6 5 3 2 4 6 6 6 6
12 12 12 12 11 11 11 11 11 12 12 12 12 12 12 11 11 10 10 10 10 10 10 10 9 9 9 9 9 9 9 9 9 9 8 8 8 8 8 7 7 6 6 5 4 2 3 4 5 5 5 5
12 12 12 11 11 11 11 11 11 11 12 12 11 12 12 11 11 10 10 9 10 9 9 9 9 9 9 9 9 9 9 9 8 8 8 8 8 8 7 7 6 5 5 4 3 2 4 5 5 5 5 5
12 12 11 11 11 11 11 11 11 11 11 11 11 11 11 11 11 10 10 9 9 9 9 9 8 8 8 9 9 9 9 8 8 8 8 8 8 7 7 6 5 5 4 4 3 3 4 4 4 4 4 4
13 12 11 11 11 11 11 11 11 11 11 11 11 11 11 11 11 10 10 9 9 9 9 9 8 8 8 8 9 9 9 8 8 8 8 8 7 7 6 5 5 4 3 3 3 4 4 4 3 4 4 4
13 12 11 11 11 11 11 11 11 11 11 11 11 11 10 11 11 10 10 10 9 9 9 8 8 8 8 8 8 8 8 8 8 8 8 7 7 6 6 4 4 4 3 2 3 4 4 3 4 4 4 4
12 12 11 11 11 11 11 11 10 11 11 11 11 11 11 11 10 10 10 9 9 9 9 8 8 8 7 7 7 8 8 8 8 8 8 7 7 6 5 4 3 3 3 3 3 4 4 4 4 5 4 4
12 12 11 11 11 11 11 11 10 10 10 10 10 10 10 10 10 10 9 9 9 9 8 8 8 7 7 7 7 7 7 7 8 8 7 7 6 5 5 4 3 3 3 3 3 3 4 4 5 4 4 4
12 12 11 11 11 11 11 10 10 10 10 10 10 10 10 10 10 9 9 9 9 8 8 8 7 7 7 7 7 7 7 7 7 7 7 7 6 5 5 4 3 3 3 3 3 3 4 4 4 4 4 4
11 11 12 11 11 11 10 10 10 10 10 10 10 10 10 10 10 9 9 9 8 8 8 8 7 7 7 7 7 7 7 7 7 7 7 6 6 5 5 4 4 3 3 3 3 3 3 3 3 3 3 3
10 10 11 11 10 11 11 10 10 10 10 10 10 10 10 10 9 9 9 9 8 8 8 8 7 7 7 7 7 7 7 6 6 6 6 6 6 5 5 4 4 3 3 3 3 3 3 3 3 3 2 2
10 9 9 10 10 10 10 10 10 10 10 10 10 10 10 10 9 9 9 9 9 8 8 8 8 8 7 7 7 7 7 6 6 6 6 5 5 5 4 4 3 3 3 3 3 2 2 3 3 2 2 2
10 10 9 9 9 9 9 10 10 10 10 9 10 10 10 10 9 9 9 9 9 9 8 8 8 8 8 7 7 7 7 6 6 6 5 5 5 4 4 4 3 3 3 3 3 2 2 2 2 2 2 2
9 9 9 9 9 9 8 9 9 9 9 9 9 10 10 10 10 9 9 9 9 9 9 8 8 8 8 7 7 7 7 6 6 5 5 5 5 4 4 3 3 3 3 2 3 2 2 2 2 2 2 2
8 9 8 9 8 8 8 8 8 8 8 8 8 9 9 9 10 9 9 9 9 9 9 8 8 8 7 8 8 8 7 6 6 5 5 5 5 4 4 3 3 3 2 2 2 2 2 1 1 1 1 1
8 8 8 8 8 8 8 8 8 8 8 8 8 7 8 8 8 8 8 9 9 9 9 9 8 8 8 8 8 8 7 6 6 5 5 4 4 4 3 3 2 2 2 2 1 1 1 1 1 1 1 1
6 7 7 7 8 8 7 7 7 7 7 7 7 7 7 7 7 7 7 7 8 8 8 8 8 8 8 8 7 7 6 6 5 5 4 4 4 3 3 3 2 2 2 2 1 1 1 1 0 0 0 0
5 6 6 7 7 7 7 7 7 7 7 7 7 7 7 7 7 7 7 7 7 7 7 7 7 7 7 7 7 6 6 6 5 5 4 4 4 3 2 3 2 2 2 2 1 1 1 1 0 0 0 0
5 5 5 6 6 6 6 6 6 7 7 7 7 6 6 7 7 7 7 7 7 6 6 6 6 7 6 6 6 6 5 5 5 4 4 4 4 3 2 2 2 2 2 2 1 1 0 0 0 -0 -0 -0
5 5 5 5 5 5 5 5 6 6 6 6 6 6 6 6 6 7 7 7 7 6 6 6 6 6 6 6 6 5 5 5 4 4 4 3 3 3 3 2 2 2 2 2 1 1 0 0 -0 -0 -0 -0
4 4 5 5 5 5 5 5 5 5 5 5 5 6 6 5 5 5 6 6 6 6 6 6 6 6 6 6 6 5 5 4 4 4 4 4 3 3 3 3 3 2 2 2 1 1 0 -0 -0 -0 -1 -1
3 3 4 5 5 5 5 5 5 4 4 5 5 5 5 5 5 5 5 5 5 5 5 5 5 5 5 5 5 5 4 4 4 3 4 4 3 3 3 3 3 3 2 1 1 0 0 -0 -0 -0 -1 -1
3 3 3 3 4 5 5 5 5 4 4 4 4 4 4 4 4 4 4 4 4 4 4 4 4 4 4 5 5 4 4 4 3 3 3 3 3 2 2 2 3 2 2 1 1 0 -0 -0 -1 -1 -1 -2
3 3 2 2 3 4 4 5 5 5 4 4 4 4 4 3 3 3 3 3 3 4 4 4 4 4 4 4 4 4 4 3 3 3 3 3 3 2 2 2 2 2 2 2 2 1 0 0 -0 -1 -1 -1
2 3 2 2 2 2 3 3 4 4 4 4 4 4 4 3 3 3 3 3 3 3 3 3 4 3 3 3 3 3 3 3 3 3 3 3 2 2 2 2 1 1 1 2 3 3 2 2 1 -1 -1 -1
2 2 2 2 2 2 2 2 3 3 3 3 4 4 4 4 3 3 3 3 3 3 3 3 3 3 3 3 3 3 3 3 2 2 2 2 3 2 2 2 1 0 1 3 3 3 4 4 3 1 -1 -1
2 2 2 2 2 2 2 2 2 3 3 3 3 3 3 3 3 3 3 3 2 2 2 2 3 3 3 2 2 2 2 3 2 2 2 2 3 3 2 2 1 -0 1 3 3 3 4 5 5 4 3 1
1 2 2 2 2 2 3 3 3 3 3 3 3 3 3 3 3 3 3 2 2 2 2 2 2 2 2 2 2 2 2 3 2 2 2 2 2 3 3 3 1 -0 -0 2 3 4 5 4 4 5 5 4
1 1 2 2 2 2 3 3 3 3 3 3 3 3 3 3 2 2 2 2 2 2 2 2 2 2 2 2 2 2 2 2 2 2 2 2 2 3 3 3 2 1 -0 0 2 3 5 4 4 6 5 4
1 1 1 1 1 2 2 2 2 2 2 2 2 2 2 3 3 2 2 2 2 2 2 2 2 2 1 2 2 2 2 2 2 2 2 2 2 2 3 3 3 2 -0 -0 0 1 3 3 3 5 4 5

ECMWFFLT2_925_temp_009.txt.gz
Temp
13 13 13 13 13 13 13 13 13 13 14 14 14 14 13 13 13 13 12 12 12 11 11 11 10 10 11 11 11 12 11 11 11 11 11 11 11 11 11 11 10 8 8 8 7 6 5 5 6 6 6 6
13 13 13 13 13 13 13 13 13 13 13 13 13 13 13 13 13 12 12 12 11 11 11 11 10 10 11 11 11 11 11 11 11 11 11 11 11 11 11 10 9 8 8 7 6 6 4 5 6 6 6 5
13 13 13 12 13 13 13 13 13 13 13 13 13 13 13 13 13 12 12 12 11 11 11 11 10 10 10 11 11 11 11 11 11 10 10 10 10 10 10 10 9 8 8 7 7 6 4 5 5 5 6 5
13 13 12 12 12 12 12 12 12 12 12 13 13 13 13 13 12 12 12 11 11 11 11 11 10 10 10 11 10 11 11 10 10 10 10 10 9 9 10 9 9 8 7 7 7 5 4 5 5 5 5 5
14 13 13 12 12 12 12 12 12 12 12 12 13 13 13 13 12 12 11 11 11 10 11 11 10 10 10 11 10 10 10 10 10 10 9 9 9 9 9 8 8 8 7 7 6 5 4 4 4 4 5 5
14 14 13 12 12 12 12 12 12 12 12 12 12 12 12 12 12 12 12 11 11 10 10 10 10 10 10 11 10 10 10 10 10 10 9 9 9 9 8 8 7 7 6 6 6 4 3 3 4 4 5 5
13 13 13 13 12 12 12 12 12 12 12 12 12 12 12 12 12 12 12 12 11 10 10 10 10 9 9 10 10 10 10 10 9 9 9 9 9 8 8 7 7 6 6 5 5 4 3 3 3 4 4 5
13 13 13 13 13 13 12 12 12 12 12 12 12 12 12 12 13 12 12 12 11 10 10 10 9 9 9 9 10 10 10 9 9 9 9 9 9 8 7 7 6 6 5 5 4 3 2 3 3 3 4 4
13 13 13 13 13 13 13 13 12 12 12 12 12 12 12 13 13 12 12 12 11 10 10 10 9 9 9 9 9 9 10 9 9 9 8 8 8 8 7 7 6 5 5 4 3 3 3 3 3 3 3 4
12 13 13 13 14 14 13 13 13 12 12 12 12 12 13 13 13 12 12 12 11 10 10 10 9 9 9 9 9 9 9 9 9 9 8 8 8 7 7 7 6 5 5 4 4 3 4 4 3 3 3 4
12 12 13 13 13 13 13 13 13 13 13 13 12 12 13 13 13 12 12 12 11 10 10 10 9 9 8 9 9 8 8 9 9 9 9 8 8 7 6 6 6 5 5 4 4 4 4 4 3 3 4 4
11 11 12 12 12 13 13 13 13 13 13 13 13 12 12 13 13 13 13 12 11 10 10 10 9 9 9 9 9 8 8 8 8 9 9 8 7 6 6 6 5 5 5 4 4 4 4 4 4 4 4 4
11 11 11 12 12 12 12 12 13 13 13 13 13 13 12 12 13 13 13 12 11 10 10 10 10 9 9 9 9 8 8 8 8 8 8 8 7 6 6 5 5 5 4 4 4 4 4 4 3 4 3 3
10 11 11 11 11 11 12 12 12 12 12 13 13 13 12 12 12 12 12 12 11 10 10 10 9 9 9 9 8 8 8 8 8 8 8 8 7 6 6 5 5 5 4 4 4 4 4 3 3 3 3 3
9 10 10 10 10 11 11 11 11 12 12 12 12 12 12 12 12 12 12 12 11 10 10 10 9 9 9 9 8 8 8 8 8 8 8 8 7 6 6 5 5 5 4 4 4 4 3 3 3 3 3 3
8 9 9 9 10 10 10 10 11 11 11 11 12 12 12 11 11 11 11 11 11 11 10 10 9 9 9 8 8 8 8 8 8 8 8 7 7 6 6 6 5 5 5 4 4 4 3 3 3 3 3 2
8 8 8 8 9 9 9 10 10 10 10 11 11 11 11 11 11 11 11 11 11 10 10 10 9 9 8 8 8 8 8 8 8 8 8 7 7 6 6 6 6 5 5 4 4 3 3 3 3 3 3 3
7 8 8 8 8 8 9 9 9 9 10 10 10 11 11 10 10 10 10 10 10 10 10 10 9 9 8 8 8 8 7 8 7 7 7 7 6 6 6 6 6 5 5 5 4 3 3 3 3 3 3 3
6 7 7 8 8 8 8 8 8 9 9 9 10 10 10 10 10 9 9 9 10 10 10 10 9 9 8 8 8 7 7 7 7 7 7 7 6 6 6 6 6 5 5 5 4 4 3 3 3 3 3 3
6 6 6 7 7 7 7 7 8 8 8 8 9 9 9 10 9 9 8 9 9 9 9 9 9 9 8 8 8 7 7 7 7 7 7 6 6 6 6 6 6 5 5 5 5 4 3 3 3 3 2 3
5 6 6 6 7 7 7 7 7 7 7 8 8 8 9 9 9 9 8 8 8 9 9 9 9 9 9 8 8 7 7 7 7 7 7 6 6 6 6 6 6 5 5 5 5 4 3 3 3 2 2 2
5 5 5 5 6 6 7 7 7 7 7 7 7 7 7 8 8 8 8 8 8 8 8 8 9 9 9 8 7 7 7 7 7 6 6 6 6 6 6 6 6 5 5 5 5 4 4 3 3 3 2 2
5 5 5 5 5 5 6 6 6 6 7 7 7 7 6 6 7 7 7 8 7 7 8 8 8 8 8 8 7 7 7 7 7 6 6 6 6 6 6 6 6 6 5 5 4 4 4 3 3 3 2 2
5 5 5 5 5 5 5 5 5 5 6 6 6 6 6 5 5 6 6 6 7 7 7 7 8 8 8 7 7 7 7 7 6 6 6 6 6 6 6 6 6 6 5 5 4 4 4 3 3 2 2 2
4 4 4 4 4 5 5 5 4 4 5 5 5 5 5 5 5 5 5 5 5 6 6 7 7 7 7 7 7 7 7 7 6 7 6 6 6 6 6 6 6 6 5 5 4 4 4 3 3 2 2 2
3 4 4 3 4 4 4 4 4 4 4 4 4 3 3 3 4 4 4 4 4 4 5 5 6 6 6 7 7 6 6 7 7 6 6 6 6 6 6 6 6 5 5 5 5 5 4 3 3 2 2 2
3 3 3 3 3 3 4 4 4 4 4 3 3 3 3 3 3 3 3 3 3 4 4 4 5 5 6 6 6 6 6 6 6 6 6 6 6 6 5 6 6 5 5 5 6 5 5 5 4 3 2 2
4 3 3 3 2 3 3 3 4 4 4 4 3 3 3 3 3 3 2 3 3 3 3 3 4 5 5 5 6 6 6 5 6 6 6 5 6 6 6 6 5 5 5 6 6 6 6 6 6 5 4 3
4 4 3 3 3 2 2 3 3 3 4 4 4 4 3 3 3 2 2 2 2 2 2 3 3 4 4 5 5 5 5 5 5 5 5 5 6 6 6 6 5 5 4 5 6 6 7 7 6 7 6 4
4 4 4 3 3 2 2 2 2 3 3 4 4 4 4 3 3 3 2 2 2 1 1 2 2 2 3 4 4 4 4 4 5 5 5 5 5 6 6 6 6 5 4 4 6 6 7 7 7 8 7 5
4 4 4 3 3 3 2 2 2 2 2 2 2 3 3 3 3 3 3 3 2 1 1 1 1 1 2 2 3 3 4 4 4 4 5 5 5 5 5 6 6 5 4 4 4 5 6 7 7 8 7 6